Location: Unspecified
(0.0000°N, 0.0000°E)
Time: 01:05:21
(UTC+02:00)

ADEOS II - Visible Passes

Search period start: 30 May 2016 00:00
Search period end: 09 June 2016 00:00
Orbit: 799 x 802 km, 98.3° (Epoch: 28 May)

Date Brightness Start Highest point End Pass type
(mag) Time Alt. Az. Time Alt. Az. Time Alt. Az.
30 May 2.1 06:05:22 10° NNE 06:10:36 78° ESE 06:12:42 38° S visible
31 May 3.3 05:39:33 10° NE 05:44:21 37° ESE 05:46:02 29° SE visible
31 May 3.8 07:21:19 10° NW 07:23:48 13° WNW 07:26:18 10° WSW visible
01 Jun 4.3 05:14:37 10° ENE 05:18:07 18° ESE 05:19:21 17° ESE visible
01 Jun 3.0 06:53:08 10° NNW 06:57:33 28° WNW 07:00:18 18° WSW visible
02 Jun 2.1 06:26:10 10° N 06:31:18 58° WNW 06:33:38 32° SW visible
03 Jun 2.3 05:59:50 10° NNE 06:05:03 68° ESE 06:06:57 39° S visible
04 Jun 3.6 05:34:09 10° NE 05:38:47 32° ESE 05:40:15 28° SE visible
04 Jun 3.7 07:15:12 10° NW 07:18:15 16° WNW 07:21:12 10° WSW visible
05 Jun 4.5 05:09:30 10° ENE 05:12:34 16° ESE 05:13:34 15° ESE visible
05 Jun 2.8 06:47:22 10° NNW 06:52:00 32° WNW 06:54:32 21° WSW visible
06 Jun 2.0 06:20:32 10° N 06:25:45 68° WNW 06:27:51 36° SSW visible
07 Jun 2.5 05:54:20 10° NNE 05:59:29 58° ESE 06:01:10 40° SSE visible
08 Jun 3.7 05:28:48 10° NE 05:33:14 28° ESE 05:34:28 25° SE visible
08 Jun 3.5 07:09:12 10° NW 07:12:41 18° WNW 07:15:25 13° WSW visible
